GW4575 Weather Reports


Display with metric or nautical units.
time (UTC)temp
F
wind
direction
speed
MPH
gust
MPH
rain 1hr
in
rain 24hr
in
rain mn
in
humidity
%
barometer
mb
20260901005947 71 255 0.0 1.0 0.00 0.06 0.06 99 1014.9
20260901005442 71 246 0.0 1.0 0.00 0.06 0.06 99 1014.9
20260901004937 71 237 0.0 0.0 0.00 0.06 0.06 99 1014.9
20260901004436 71 263 0.0 1.0 0.00 0.06 0.06 99 1014.9
20260901003931 71 240 0.0 0.0 0.00 0.06 0.06 99 1014.9
20260901003426 71 241 0.0 1.0 0.00 0.06 0.06 99 1015.0
20260901002925 71 248 1.0 2.0 0.00 0.06 0.06 99 1014.9
20260901002424 71 234 0.0 0.0 0.00 0.06 0.06 99 1014.9
20260901001919 71 265 1.0 3.0 0.00 0.06 0.06 99 1014.9
20260901001415 71 253 1.0 2.0 0.00 0.06 0.06 99 1015.0
20260901000910 71 248 1.0 2.0 0.00 0.06 0.06 99 1014.7
20260901000406 72 278 1.0 2.0 0.00 0.06 0.06 99 1014.7
20260831235903 72 257 1.0 2.0 0.00 0.06 0.06 99 1014.7
20260831235400 72 238 0.0 2.0 0.00 0.06 0.06 99 1014.9
20260831234900 72 244 0.0 0.0 0.00 0.06 0.06 98 1014.9
20260831234354 71 244 0.0 0.0 0.00 0.06 0.06 98 1014.7
20260831233850 72 216 0.0 0.0 0.00 0.06 0.06 98 1014.5
20260831233345 72 222 0.0 0.0 0.00 0.06 0.06 98 1014.6
20260831232840 71 199 0.0 0.0 0.00 0.06 0.06 98 1014.6
20260831232336 71 214 0.0 1.0 0.00 0.06 0.06 98 1014.6
20260831231832 71 208 0.0 1.0 0.00 0.06 0.06 98 1014.4
20260831231328 71 183 0.0 1.0 0.00 0.06 0.06 98 1014.7
20260831230824 71 180 0.0 1.0 0.00 0.06 0.06 98 1014.5
20260831230318 71 169 1.0 2.0 0.00 0.06 0.06 99 1014.5
20260831225818 71 178 1.0 1.0 0.00 0.06 0.06 98 1014.4
20260831225313 71 183 0.0 1.0 0.00 0.06 0.06 99 1014.6
20260831224809 71 193 1.0 2.0 0.00 0.06 0.06 99 1014.4
20260831224303 71 184 1.0 2.0 0.00 0.06 0.06 99 1014.5
20260831223758 71 190 0.0 1.0 0.00 0.06 0.06 99 1014.5
20260831223254 71 235 0.0 0.0 0.00 0.06 0.06 98 1014.5
20260831222751 71 227 0.0 0.0 0.00 0.06 0.06 98 1014.6
20260831222246 71 219 0.0 0.0 0.00 0.06 0.06 98 1014.5
20260831221741 71 244 0.0 2.0 0.00 0.06 0.06 98 1014.5
20260831221236 71 208 0.0 1.0 0.00 0.06 0.06 98 1014.5
20260831220732 72 244 0.0 1.0 0.00 0.06 0.06 97 1014.3
20260831220226 72 191 1.0 2.0 0.00 0.06 0.06 97 1014.3
20260831215721 72 157 0.0 2.0 0.00 0.06 0.06 95 1014.3
20260831215217 72 166 0.0 2.0 0.00 0.06 0.06 95 1014.4
20260831214714 72 166 1.0 2.0 0.00 0.06 0.06 94 1014.2
20260831214211 72 190 0.0 1.0 0.00 0.06 0.06 95 1014.4
20260831213706 73 185 0.0 1.0 0.00 0.06 0.06 94 1014.3
20260831213202 73 176 1.0 1.0 0.00 0.06 0.06 94 1014.3
20260831212657 73 176 1.0 1.0 0.00 0.06 0.06 94 1014.0
20260831212154 73 180 0.0 1.0 0.00 0.06 0.06 94 1014.2
20260831211652 73 203 0.0 0.0 0.00 0.06 0.06 94 1014.0
20260831211148 73 182 0.0 1.0 0.00 0.06 0.06 94 1014.0
20260831210647 73 182 1.0 3.0 0.00 0.06 0.06 94 1013.8
20260831210143 73 84 3.0 3.0 0.00 0.06 0.06 94 1013.8
20260831205642 73 110 1.0 2.0 0.00 0.06 0.06 94 1014.0
20260831205139 73 169 2.0 6.0 0.00 0.06 0.06 94 1014.1
20260831204638 73 169 1.0 2.0 0.00 0.06 0.06 93 1013.8
20260831204137 73 132 1.0 1.0 0.00 0.06 0.06 93 1013.8
20260831203632 74 189 1.0 2.0 0.00 0.06 0.06 93 1013.7
20260831203131 74 99 1.0 2.0 0.00 0.06 0.06 93 1013.6
20260831202630 74 141 3.0 3.0 0.00 0.06 0.06 93 1013.5
20260831202125 74 167 1.0 3.0 0.00 0.06 0.06 93 1013.5
20260831201624 74 178 1.0 3.0 0.00 0.06 0.06 93 1013.5
20260831201119 74 193 2.0 3.0 0.00 0.06 0.06 93 1013.7
20260831200616 74 183 2.0 3.0 0.00 0.06 0.06 92 1013.6
20260831200115 74 121 2.0 6.0 0.00 0.06 0.06 93 1013.8
20260831195606 74 160 5.0 7.0 0.00 0.06 0.06 92 1013.7
20260831195101 74 181 1.0 2.0 0.00 0.06 0.06 93 1013.8
20260831194555 74 162 1.0 3.0 0.00 0.06 0.06 92 1013.8
20260831194055 74 142 3.0 4.0 0.00 0.06 0.06 91 1014.1
20260831193551 75 169 3.0 4.0 0.00 0.06 0.06 90 1013.7
20260831193051 75 167 3.0 6.0 0.00 0.06 0.06 90 1013.9
20260831192546 75 168 2.0 4.0 0.00 0.06 0.06 90 1013.8
20260831192041 75 91 4.0 7.0 0.00 0.06 0.06 91 1013.8
20260831191537 74 174 2.0 3.0 0.00 0.06 0.06 92 1014.1
20260831191033 74 142 1.0 2.0 0.00 0.06 0.06 91 1013.9
20260831190528 75 191 1.0 3.0 0.00 0.06 0.06 91 1014.0
20260831190027 74 182 2.0 6.0 0.00 0.06 0.06 91 1014.2
20260831185523 75 168 2.0 3.0 0.00 0.06 0.06 90 1014.3
20260831185018 75 88 2.0 6.0 0.00 0.06 0.06 91 1014.3
20260831184513 74 99 4.0 4.0 0.00 0.06 0.06 90 1014.3
20260831184008 74 195 2.0 3.0 0.00 0.06 0.06 91 1014.3
20260831183507 73 186 2.0 3.0 0.00 0.06 0.06 92 1014.2
20260831183006 73 72 3.0 4.0 0.00 0.06 0.06 92 1014.2
20260831182501 73 152 2.0 3.0 0.00 0.06 0.06 93 1014.3
20260831181957 74 154 3.0 4.0 0.00 0.06 0.06 92 1014.4
20260831181452 73 141 2.0 7.0 0.00 0.06 0.06 93 1014.2
20260831180953 73 212 3.0 4.0 0.00 0.06 0.06 93 1014.3
20260831180447 73 109 1.0 3.0 0.00 0.06 0.06 93 1014.3
20260831175946 72 210 2.0 8.0 0.00 0.06 0.06 94 1014.2
20260831175443 72 175 3.0 4.0 0.00 0.06 0.06 94 1014.3
20260831174938 72 127 4.0 7.0 0.00 0.06 0.06 93 1014.3
20260831174433 72 128 3.0 6.0 0.00 0.06 0.06 93 1014.4
20260831173933 72 21 2.0 6.0 0.00 0.06 0.06 93 1014.2
20260831173432 72 159 3.0 6.0 0.00 0.06 0.06 94 1014.0
20260831172928 72 79 2.0 4.0 0.00 0.06 0.06 94 1014.2
20260831172424 72 174 2.0 4.0 0.00 0.06 0.06 94 1014.2
20260831171923 72 57 3.0 8.0 0.00 0.06 0.06 93 1014.2
20260831171419 71 129 4.0 4.0 0.00 0.06 0.06 94 1014.1
20260831170916 71 153 3.0 4.0 0.00 0.06 0.06 94 1014.2
20260831170412 71 159 3.0 8.0 0.00 0.06 0.06 94 1014.3
20260831165908 71 167 3.0 6.0 0.00 0.06 0.06 94 1014.3
20260831165404 71 158 3.0 6.0 0.00 0.06 0.06 94 1014.4
20260831164900 71 166 2.0 4.0 0.00 0.06 0.06 94 1014.4
20260831164356 71 203 2.0 2.0 0.00 0.06 0.06 94 1014.5
20260831163851 71 166 2.0 3.0 0.00 0.06 0.06 94 1014.7
20260831163347 71 128 2.0 3.0 0.00 0.06 0.06 94 1014.4
20260831162845 70 137 4.0 4.0 0.00 0.06 0.06 96 1014.5
20260831162341 69 111 5.0 7.0 0.00 0.06 0.06 96 1014.5
20260831161839 70 121 2.0 6.0 0.00 0.06 0.06 96 1014.6
20260831161336 69 99 4.0 6.0 0.00 0.06 0.06 97 1014.4
20260831160831 69 104 4.0 7.0 0.00 0.06 0.06 97 1014.4
20260831160326 69 174 5.0 7.0 0.00 0.06 0.06 97 1014.5
20260831155821 69 149 6.0 9.0 0.00 0.06 0.06 97 1014.5
20260831155320 69 210 2.0 8.0 0.00 0.06 0.06 98 1014.4
20260831154816 69 144 2.0 6.0 0.00 0.06 0.06 98 1014.4
20260831154313 69 166 3.0 6.0 0.00 0.06 0.06 98 1014.5
20260831153811 68 160 3.0 4.0 0.00 0.06 0.06 99 1014.4
20260831153307 68 93 4.0 4.0 0.00 0.06 0.06 99 1014.4
20260831152803 68 129 7.0 7.0 0.00 0.06 0.06 99 1014.2
20260831152258 67 97 4.0 4.0 0.00 0.06 0.06 99 1014.3
20260831151753 67 129 2.0 4.0 0.00 0.06 0.06 99 1014.3
20260831151252 67 129 3.0 6.0 0.00 0.06 0.06 99 1014.4
20260831150747 67 208 3.0 7.0 0.00 0.06 0.06 99 1014.5
20260831150243 67 162 4.0 8.0 0.00 0.06 0.06 99 1014.6
20260831145742 67 159 3.0 4.0 0.00 0.06 0.06 99 1014.6
20260831145238 67 147 4.0 7.0 0.00 0.06 0.06 99 1014.3
20260831144734 67 77 2.0 6.0 0.00 0.06 0.06 99 1014.2
20260831144230 66 197 4.0 4.0 0.00 0.06 0.06 99 1014.3
20260831143730 66 149 3.0 3.0 0.00 0.06 0.06 99 1014.1
20260831143225 66 145 6.0 9.0 0.00 0.06 0.06 99 1013.9
20260831142721 66 144 5.0 7.0 0.00 0.06 0.06 99 1014.1
20260831142216 66 159 4.0 6.0 0.00 0.06 0.06 99 1013.9
20260831141715 66 140 3.0 6.0 0.00 0.06 0.06 99 1014.2
20260831141210 66 200 2.0 3.0 0.00 0.06 0.06 99 1014.4
20260831140710 66 116 4.0 7.0 0.00 0.06 0.06 99 1014.3
20260831140205 66 74 1.0 4.0 0.00 0.06 0.06 99 1014.4
20260831135702 66 126 1.0 4.0 0.00 0.06 0.06 99 1014.4
20260831135158 66 141 4.0 7.0 0.00 0.06 0.06 99 1014.6
20260831134654 66 181 2.0 7.0 0.00 0.06 0.06 99 1014.6
20260831134144 66 176 3.0 6.0 0.00 0.06 0.06 99 1014.4
20260831133642 66 95 4.0 8.0 0.00 0.06 0.06 99 1014.6
20260831133132 66 185 4.0 6.0 0.00 0.06 0.06 99 1014.5
20260831132628 66 185 4.0 6.0 0.00 0.06 0.06 99 1014.5
20260831132127 66 145 4.0 7.0 0.00 0.06 0.06 99 1014.3
20260831131622 66 69 4.0 8.0 0.00 0.06 0.06 99 1014.4
20260831131119 66 138 2.0 8.0 0.00 0.06 0.06 99 1014.3
20260831130613 66 110 3.0 4.0 0.00 0.06 0.06 99 1014.7
20260831130109 66 97 2.0 3.0 0.00 0.06 0.06 99 1014.6
20260831125607 66 88 3.0 4.0 0.00 0.06 0.06 99 1014.7
20260831125103 66 143 4.0 6.0 0.00 0.06 0.06 99 1014.9
20260831124559 66 128 2.0 3.0 0.00 0.06 0.06 99 1014.7
20260831124055 66 166 6.0 9.0 0.00 0.06 0.06 99 1014.5
20260831123554 66 81 4.0 7.0 0.00 0.06 0.06 99 1014.4
20260831123048 66 175 3.0 6.0 0.00 0.06 0.06 99 1014.6
20260831122542 66 157 5.0 8.0 0.00 0.06 0.06 99 1014.7
20260831122038 66 45 3.0 8.0 0.00 0.06 0.06 99 1014.6
20260831121533 66 96 3.0 7.0 0.00 0.06 0.06 99 1014.3
20260831121029 66 161 3.0 7.0 0.00 0.06 0.06 99 1014.2
20260831120528 66 104 2.0 4.0 0.00 0.06 0.06 99 1014.2
20260831120024 66 173 4.0 7.0 0.00 0.06 0.06 99 1014.1
20260831115520 66 92 3.0 6.0 0.00 0.06 0.06 99 1014.3
20260831115015 66 155 3.0 6.0 0.00 0.06 0.06 99 1014.3
20260831114514 66 211 3.0 6.0 0.00 0.06 0.06 99 1014.3
20260831114009 66 124 1.0 6.0 0.00 0.06 0.06 99 1014.2
20260831113508 66 145 3.0 4.0 0.00 0.06 0.06 99 1014.3
20260831113004 66 138 2.0 6.0 0.00 0.06 0.06 99 1014.0
20260831112503 66 105 2.0 7.0 0.00 0.06 0.06 99 1014.3
20260831111958 66 51 3.0 7.0 0.00 0.06 0.06 99 1014.4
20260831111455 65 150 1.0 3.0 0.00 0.06 0.06 99 1014.2
20260831110950 65 73 2.0 3.0 0.00 0.06 0.06 99 1014.4
20260831110445 65 165 2.0 6.0 0.00 0.06 0.06 99 1014.1
20260831105944 65 147 2.0 3.0 0.00 0.06 0.06 99 1014.3
20260831105440 65 113 4.0 6.0 0.00 0.06 0.06 99 1014.3
20260831104939 65 142 4.0 7.0 0.00 0.06 0.06 99 1014.3
20260831104436 65 162 5.0 7.0 0.00 0.06 0.06 99 1013.9
20260831103931 65 121 6.0 8.0 0.00 0.06 0.06 99 1013.9
20260831103426 65 200 2.0 6.0 0.00 0.06 0.06 99 1014.0
20260831102921 65 155 4.0 11.0 0.00 0.06 0.06 99 1014.0
20260831102416 65 150 4.0 6.0 0.00 0.06 0.06 99 1014.0
20260831101911 65 181 3.0 7.0 0.00 0.06 0.06 99 1014.0
20260831101406 65 45 3.0 6.0 0.00 0.06 0.06 99 1013.9
20260831100903 65 57 5.0 9.0 0.00 0.06 0.06 99 1013.8
20260831100358 66 148 5.0 7.0 0.00 0.06 0.06 99 1014.1
20260831095858 65 178 5.0 8.0 0.00 0.06 0.06 99 1013.9
20260831095357 65 115 4.0 8.0 0.00 0.06 0.06 99 1014.4
20260831094853 65 105 3.0 6.0 0.00 0.06 0.06 99 1014.7
20260831094348 65 102 5.0 7.0 0.05 0.06 0.06 99 1014.6
20260831093844 65 83 4.0 6.0 0.05 0.06 0.06 99 1014.7
20260831093339 65 82 4.0 6.0 0.00 0.05 0.05 99 1014.7
20260831092836 65 111 3.0 6.0 0.00 0.05 0.05 99 1015.0
20260831092331 65 81 2.0 7.0 0.00 0.05 0.05 99 1015.2
20260831091826 65 93 5.0 10.0 0.00 0.05 0.05 99 1015.4
20260831091322 65 95 3.0 7.0 0.00 0.05 0.05 99 1015.3
20260831090817 65 163 3.0 8.0 0.00 0.05 0.05 99 1015.4
20260831090313 65 157 6.0 11.0 0.00 0.05 0.05 99 1015.8
20260831085809 65 140 4.0 6.0 0.07 0.05 0.05 99 1015.7
20260831085306 65 167 6.0 9.0 0.05 0.04 0.04 99 1015.7
20260831084803 65 144 2.0 8.0 0.12 0.04 0.04 99 1015.8
20260831084259 65 213 3.0 4.0 0.14 0.03 0.03 99 1015.7
20260831083755 65 131 6.0 7.0 0.07 0.02 0.02 99 1015.7
20260831083246 65 116 3.0 8.0 0.05 0.01 0.01 99 1015.8
20260831082744 65 66 4.0 6.0 0.00 0.00 0.00 99 1015.8
20260831082239 65 100 2.0 11.0 0.00 0.00 0.00 99 1015.8
20260831081735 65 151 6.0 9.0 0.00 0.00 0.00 99 1015.9
20260831081230 65 187 3.0 4.0 0.00 0.00 0.00 99 1015.8
20260831080726 65 112 3.0 3.0 0.00 0.00 0.00 99 1015.9
20260831080225 65 187 4.0 6.0 0.00 0.00 0.00 99 1015.8
20260831075721 65 116 3.0 6.0 0.00 0.00 0.00 99 1015.9
20260831075218 65 78 4.0 7.0 0.00 0.00 0.00 99 1015.8
20260831074717 65 99 3.0 7.0 0.00 0.00 0.00 99 1015.8
20260831074216 65 110 3.0 6.0 0.00 0.00 0.00 99 1015.9
20260831073712 65 104 4.0 7.0 0.00 0.00 0.00 99 1016.0
20260831073211 65 179 5.0 8.0 0.00 0.00 0.00 99 1015.9
20260831072706 65 165 3.0 6.0 0.00 0.00 0.00 99 1016.0
20260831072202 65 126 3.0 6.0 0.00 0.00 0.00 99 1016.2
20260831071656 65 153 3.0 6.0 0.00 0.00 0.00 99 1016.2
20260831071150 65 165 3.0 4.0 0.00 0.00 0.00 99 1016.3
20260831070644 65 168 3.0 6.0 0.00 0.00 0.00 99 1016.3
20260831070139 65 113 6.0 9.0 0.00 0.00 0.00 99 1016.3
20260831065638 65 111 2.0 7.0 0.00 0.00 0.00 99 1016.1
20260831065136 65 128 3.0 7.0 0.00 0.00 0.00 99 1016.4
20260831064632 65 128 4.0 8.0 0.00 0.00 0.00 99 1016.4
20260831064127 65 132 4.0 7.0 0.00 0.00 0.00 99 1016.4
20260831063623 65 105 3.0 8.0 0.00 0.00 0.00 99 1016.4
20260831063118 65 119 4.0 9.0 0.00 0.00 0.00 99 1016.5
20260831062612 65 87 4.0 7.0 0.00 0.00 0.00 99 1016.4
20260831062107 65 162 3.0 8.0 0.00 0.00 0.00 99 1016.8
20260831061604 65 122 3.0 9.0 0.00 0.00 0.00 99 1016.9
20260831061101 65 139 5.0 7.0 0.00 0.00 0.00 99 1017.0
20260831060556 65 94 4.0 9.0 0.00 0.00 0.00 99 1016.9
20260831060051 65 110 3.0 4.0 0.00 0.00 0.00 99 1016.9
20260831055545 65 95 3.0 6.0 0.00 0.00 0.00 99 1016.9
20260831055041 65 144 3.0 7.0 0.00 0.00 0.00 99 1017.2
20260831054540 65 207 3.0 7.0 0.00 0.00 0.00 99 1017.0
20260831054040 65 93 4.0 8.0 0.00 0.00 0.00 99 1017.2
20260831053538 64 60 4.0 7.0 0.00 0.00 0.00 99 1017.2
20260831053038 64 93 4.0 11.0 0.00 0.00 0.00 99 1017.4
20260831052537 64 98 3.0 7.0 0.00 0.00 0.00 99 1017.6
20260831052032 64 169 2.0 4.0 0.00 0.00 0.00 99 1017.7
20260831051530 64 106 2.0 7.0 0.00 0.00 0.00 99 1017.8
20260831051029 64 114 2.0 7.0 0.00 0.00 0.00 99 1017.7
20260831050529 64 122 2.0 6.0 0.00 0.00 0.00 99 1017.9
20260831050027 64 168 2.0 3.0 0.00 0.00 0.00 99 1017.7
20260831045527 64 200 2.0 7.0 0.00 0.00 0.00 99 1018.1
20260831045023 63 137 3.0 4.0 0.00 0.00 0.00 99 1017.9
20260831044518 63 181 2.0 4.0 0.00 0.00 0.00 99 1017.8
20260831044013 63 100 1.0 2.0 0.00 0.00 0.00 99 1017.8
20260831043513 63 182 2.0 3.0 0.00 0.00 0.00 99 1017.9
20260831043008 63 87 2.0 4.0 0.00 0.00 0.00 99 1018.1
20260831042503 63 162 2.0 4.0 0.00 0.00 0.00 99 1017.9
20260831042003 63 174 1.0 2.0 0.00 0.00 0.00 99 1018.1
20260831041458 63 162 2.0 3.0 0.00 0.00 0.00 99 1017.9
20260831040957 64 185 0.0 3.0 0.00 0.00 0.00 99 1017.7
20260831040452 64 111 1.0 2.0 0.00 0.00 0.00 99 1017.5
20260831035949 64 173 1.0 3.0 0.00 0.01 0.01 99 1017.4
20260831035449 64 116 2.0 3.0 0.00 0.01 0.01 99 1017.4
20260831034944 64 180 0.0 4.0 0.00 0.01 0.01 99 1017.4
20260831034434 64 81 2.0 4.0 0.00 0.01 0.01 99 1017.5
20260831033929 64 173 4.0 6.0 0.00 0.01 0.01 99 1017.3
20260831033425 64 173 4.0 7.0 0.00 0.01 0.01 99 1017.5
20260831032920 64 95 3.0 6.0 0.00 0.01 0.01 99 1017.5
20260831032419 64 183 2.0 4.0 0.00 0.01 0.01 99 1017.5
20260831031915 64 93 2.0 6.0 0.00 0.01 0.01 99 1017.3
20260831031414 64 80 2.0 8.0 0.00 0.01 0.01 99 1017.2
20260831030908 64 55 4.0 7.0 0.00 0.01 0.01 99 1017.1
20260831030408 64 171 3.0 7.0 0.00 0.01 0.01 99 1017.2
20260831025906 64 115 4.0 8.0 0.00 0.01 0.01 99 1017.5
20260831025401 63 95 1.0 4.0 0.00 0.01 0.01 99 1017.5
20260831024856 64 154 1.0 2.0 0.00 0.01 0.01 99 1017.7
20260831024355 64 214 0.0 2.0 0.00 0.01 0.01 99 1017.9
20260831023855 64 179 1.0 2.0 0.00 0.01 0.01 99 1017.9
20260831023353 63 153 4.0 6.0 0.00 0.01 0.01 99 1017.8
20260831022849 63 175 3.0 4.0 0.00 0.01 0.01 99 1017.7
20260831022347 63 122 2.0 6.0 0.00 0.01 0.01 99 1017.7
20260831021842 63 164 2.0 3.0 0.00 0.01 0.01 99 1017.7
20260831021336 63 160 3.0 7.0 0.00 0.01 0.01 99 1017.5
20260831020832 63 56 1.0 3.0 0.00 0.01 0.01 99 1017.6
20260831020332 63 115 4.0 6.0 0.00 0.01 0.01 99 1017.7
20260831015827 63 168 2.0 3.0 0.00 0.01 0.01 99 1017.7
20260831015323 63 108 2.0 6.0 0.00 0.01 0.01 99 1017.9
20260831014823 63 161 4.0 6.0 0.00 0.01 0.01 99 1017.7
20260831014318 64 65 2.0 4.0 0.00 0.01 0.01 99 1017.7
20260831013814 64 79 2.0 3.0 0.00 0.01 0.01 99 1017.7
20260831013313 64 88 4.0 8.0 0.00 0.01 0.01 99 1017.7
20260831012808 64 86 1.0 4.0 0.00 0.01 0.01 99 1017.6
20260831012306 64 167 5.0 8.0 0.00 0.01 0.01 99 1017.4
20260831011803 64 166 6.0 10.0 0.00 0.01 0.01 99 1017.7
20260831011258 64 160 2.0 4.0 0.00 0.01 0.01 99 1017.6
20260831010754 64 180 4.0 6.0 0.00 0.01 0.01 98 1017.6
20260831010248 64 124 3.0 6.0 0.00 0.01 0.01 98 1017.5